WB8ZTP Weather Reports


time (UTC)temp
F
wind
direction
speed
knots
gust
knots
rain 1hr
in
rain 24hr
in
rain mn
in
humidity
%
barometer
mb
20260510174549 63 19 1.7 6.1 0.00 0.00 0.00 53 1018.2
20260510173040 62 49 4.3 7.0 0.00 0.00 0.00 53 1018.3
20260510171540 62 42 0.0 7.0 0.00 0.00 0.00 52 1018.2
20260510170037 62 24 2.6 7.8 0.00 0.00 0.00 54 1018.4
20260510164537 62 325 0.9 9.6 0.00 0.00 0.00 51 1018.5
20260510163034 61 42 1.7 5.2 0.00 0.00 0.00 51 1018.5
20260510161534 60 351 1.7 7.0 0.00 0.00 0.00 58 1018.4
20260510160035 60 30 2.6 7.0 0.00 0.00 0.00 59 1018.3
20260510154529 59 63 1.7 7.0 0.00 0.00 0.00 59 1018.2
20260510153033 59 15 1.7 6.1 0.00 0.00 0.00 61 1017.8
20260510151524 58 5 1.7 7.0 0.00 0.00 0.00 65 1017.7
20260510150033 58 46 0.9 6.1 0.00 0.00 0.00 64 1017.6
20260510144522 57 38 1.7 7.0 0.00 0.00 0.00 64 1017.4
20260510143021 56 19 1.7 6.1 0.00 0.00 0.00 64 1017.1
20260510141526 56 31 0.9 6.1 0.00 0.00 0.00 67 1017.0
20260510140016 55 36 0.9 6.1 0.00 0.00 0.00 69 1017.1
20260510134514 54 50 0.0 5.2 0.00 0.00 0.00 69 1016.8
20260510133013 53 47 0.9 7.0 0.00 0.00 0.00 68 1016.7
20260510131511 53 13 1.7 4.3 0.00 0.00 0.00 71 1016.6
20260510130010 53 45 1.7 4.3 0.00 0.00 0.00 72 1016.4
20260510124508 52 18 0.9 5.2 0.00 0.00 0.00 73 1016.0
20260510123008 52 24 0.9 4.3 0.00 0.00 0.00 73 1016.1
20260510121504 52 23 2.6 5.2 0.00 0.00 0.00 73 1016.0
20260510120002 52 30 0.9 4.3 0.00 0.00 0.00 74 1015.7
20260510114603 52 5 0.9 3.5 0.00 0.00 0.00 75 1015.6
20260510113057 53 18 0.0 3.5 0.00 0.00 0.00 77 1015.1
20260510111555 53 34 0.0 3.5 0.00 0.00 0.00 77 1014.9
20260510110053 53 360 0.9 6.1 0.00 0.00 0.00 78 1014.8
20260510104550 53 30 0.9 3.5 0.00 0.00 0.00 80 1014.4
20260510103057 54 360 1.7 5.2 0.00 0.00 0.00 81 1014.1
20260510101548 55 28 0.9 5.2 0.00 0.00 0.00 81 1013.7
20260510100040 55 351 0.9 5.2 0.00 0.00 0.00 81 1013.5
20260510094543 56 355 1.7 6.1 0.00 0.00 0.00 80 1013.2
20260510093035 56 337 1.7 4.3 0.00 0.00 0.00 81 1013.0
20260510091532 56 348 0.9 6.1 0.00 0.00 0.00 81 1012.5
20260510090031 57 322 0.0 3.5 0.00 0.00 0.00 81 1012.4
20260510084527 57 315 1.7 4.3 0.00 0.00 0.00 80 1011.9
20260510083025 58 342 1.7 5.2 0.00 0.00 0.00 80 1011.7
20260510081535 58 247 0.0 3.5 0.00 0.00 0.00 78 1011.4
20260510080027 58 287 0.0 4.3 0.00 0.00 0.00 77 1011.4
20260510074524 58 239 0.0 5.2 0.00 0.00 0.00 77 1011.6
20260510073023 59 335 0.0 3.5 0.00 0.00 0.00 76 1011.4
20260510071522 59 248 0.9 4.3 0.00 0.00 0.00 76 1011.5
20260510070024 60 286 0.9 2.6 0.00 0.00 0.00 75 1011.4
20260510064521 61 219 0.0 4.3 0.00 0.00 0.00 73 1011.4
20260510063021 61 215 2.6 7.8 0.00 0.00 0.00 75 1011.6
20260510061525 61 196 2.6 7.8 0.00 0.00 0.00 78 1011.7
20260510060018 61 237 4.3 13.0 0.00 0.00 0.00 79 1011.8
20260510054516 61 263 0.9 5.2 0.00 0.00 0.00 79 1011.7
20260510053014 61 189 1.7 7.0 0.00 0.00 0.00 78 1011.6
20260510051526 61 206 3.5 7.8 0.00 0.00 0.00 77 1011.3
20260510050012 61 186 2.6 7.0 0.00 0.00 0.00 78 1011.4
20260510044510 60 187 1.7 7.0 0.00 0.00 0.00 79 1011.2
20260510043017 59 207 2.6 6.1 0.00 0.00 0.00 80 1011.3
20260510041504 58 175 1.7 5.2 0.00 0.00 0.00 81 1011.1
20260510040001 58 178 0.0 2.6 0.00 0.00 0.00 83 1011.0
20260510034607 58 174 0.0 1.7 0.00 0.00 0.00 82 1010.9
20260510033121 59 166 0.0 3.5 0.00 0.00 0.00 80 1010.7
20260510031603 59 173 0.0 3.5 0.00 0.00 0.00 79 1010.6
20260510030059 59 186 0.0 3.5 0.00 0.00 0.00 80 1010.7
20260510024612 59 173 0.0 3.5 0.00 0.00 0.00 81 1010.7
20260510023101 58 219 0.0 3.5 0.00 0.00 0.00 83 1010.6
20260510021558 58 182 0.0 2.6 0.00 0.00 0.00 82 1010.5
20260510020058 59 187 0.0 3.5 0.00 0.00 0.00 80 1010.2
20260510014614 60 182 0.0 2.6 0.00 0.00 0.00 78 1010.0
20260510013104 61 182 0.9 5.2 0.00 0.00 0.00 76 1009.9
20260510011555 61 172 0.0 0.9 0.00 0.00 0.00 75 1009.4
20260510010055 62 178 0.0 1.7 0.00 0.00 0.00 71 1009.6
20260510004600 64 194 0.0 1.7 0.00 0.00 0.00 68 1009.4
20260510003054 65 178 0.9 4.3 0.00 0.00 0.00 65 1009.2
20260510001553 66 167 1.7 5.2 0.00 0.00 0.00 61 1008.9
20260510000052 67 218 2.6 7.8 0.00 0.00 0.00 60 1008.8
20260509234553 67 221 1.7 6.1 0.00 0.00 0.00 61 1008.7
20260509233053 68 192 1.7 8.7 0.00 0.00 0.00 60 1008.6
20260509231604 69 184 2.6 8.7 0.00 0.00 0.00 60 1008.5
20260509230051 69 211 2.6 13.9 0.00 0.00 0.00 57 1008.5
20260509224551 69 202 3.5 10.4 0.00 0.00 0.00 58 1008.4
20260509223053 69 138 2.6 13.0 0.00 0.00 0.00 57 1008.4
20260509221549 69 221 3.5 12.2 0.00 0.00 0.00 59 1008.5
20260509220047 70 159 1.7 13.0 0.00 0.00 0.00 59 1008.6
20260509214546 69 207 2.6 13.0 0.00 0.00 0.00 59 1008.6
20260509213046 69 227 2.6 13.9 0.00 0.00 0.00 61 1008.7
20260509211553 70 196 4.3 8.7 0.00 0.00 0.00 58 1008.7
20260509210052 69 192 4.3 8.7 0.00 0.00 0.00 61 1008.9
20260509204539 69 199 3.5 13.0 0.00 0.00 0.00 62 1009.0
20260509203037 68 222 1.7 14.8 0.00 0.00 0.00 61 1009.1
20260509201536 68 225 7.0 12.2 0.00 0.00 0.00 60 1009.1
20260509200036 68 140 6.1 12.2 0.00 0.00 0.00 62 1009.3
20260509194534 68 209 6.1 14.8 0.00 0.00 0.00 63 1009.4
20260509193029 67 217 3.5 13.0 0.00 0.00 0.00 66 1009.6
20260509191528 66 238 2.6 10.4 0.00 0.00 0.00 69 1009.8
20260509190025 66 215 4.3 9.6 0.00 0.00 0.00 71 1009.9
20260509184533 65 207 6.1 13.0 0.00 0.00 0.00 70 1010.0
20260509183023 66 229 2.6 9.6 0.00 0.00 0.00 73 1009.9
20260509181519 64 217 2.6 7.0 0.00 0.00 0.00 75 1010.2